Regional Weather Roundup
Issued by NWS

Home | Current Version | Previous Version | Text Only | Print | Product List | Glossary Off
Versions: 1 2 3 4 5 6 7 8 9 10 11 12 13 14 15 16 17 18 19 20 21 22 23 24 25 26 27 28 29 30 31 32 33 34 35 36 37 38 39 40 41 42 43 44 45 46 47 48 49 50

000
ASUS45 KPSR 011410
RWRAZ

ARIZONA REGIONAL HOURLY WEATHER ROUNDUP
NATIONAL WEATHER SERVICE PHOENIX AZ
700 AM MST SUN MAR 01 2015

NOTE: FAIR INDICATES FEW OR NO CLOUDS BELOW 12,000 FEET WITH NO
SIGNIFICANT WEATHER AND/OR OBSTRUCTIONS TO VISIBILITY.

AZZ001>003-036-011500-
NORTHWEST ARIZONA

CITY           SKY/WX    TMP DP  RH WIND       PRES   REMARKS
BULLHEAD CITY  CLOUDY    57  37  47 CALM      29.94R
KINGMAN        CLOUDY    47  34  60 E3        29.94R
$$

AZZ004>008-015-016-018-011500-
NORTH CENTRAL ARIZONA

CITY           SKY/WX    TMP DP  RH WIND       PRES   REMARKS
GRAND CANYON   LGT SNOW  32  32 100 SW8       30.00S FOG     WCI  25
PRESCOTT       RAIN      37  34  89 NE9       29.99R FOG     WCI  30
FLAGSTAFF      LGT SNOW  32  30  92 VRB3      30.00R VSB 1
PAYSON         CLOUDY    45  43  93 VRB6G14   30.03R
PAGE           LGT RAIN  39  35  86 W5        30.02R
$$

AZZ009>014-017-011500-
NORTHEAST ARIZONA

CITY           SKY/WX    TMP DP  RH WIND       PRES   REMARKS
WINSLOW        CLOUDY    41  38  89 NW6       30.01R
SAINT JOHNS    LGT RAIN  42  40  92 CALM      30.03R
WINDOW ROCK    CLOUDY    37  34  89 CALM      30.03R
SHOW LOW       CLOUDY    41  37  87 SW18G29   30.04R
$$

AZZ023-011500-
GREATER PHOENIX AREA

CITY           SKY/WX    TMP DP  RH WIND       PRES   REMARKS
PHOENIX        CLOUDY    61  48  62 E6        29.93R
BUCKEYE        CLOUDY    59  50  72 E6        29.95R
GLENDALE       CLOUDY    59  50  72 CALM      29.95
LUKE AFB       CLOUDY    59  51  76 CALM      29.93
DEER VALLEY    CLOUDY    59  47  64 SE6       29.94R
SCOTTSDALE     CLOUDY    59  48  67 SE3       29.96R
MESA-FALCON    CLOUDY   N/A N/A N/A VRB6      29.95R
MESA-GATEWAY   MOCLDY    57  48  72 SE8       29.98R
CHANDLER       MOCLDY    59  48  67 CALM      29.95R
$$

AZZ027-028-011500-
SOUTHWEST MARICOPA COUNTY AND PINAL COUNTY

CITY           SKY/WX    TMP DP  RH WIND       PRES   REMARKS
CASA GRANDE    CLOUDY    55  45  67 CALM      29.97R
$$

AZZ503-504-507>509-011500-
SOUTHEAST ARIZONA

CITY           SKY/WX    TMP DP  RH WIND       PRES   REMARKS
TUCSON         CLEAR     55  40  56 E8        30.01R
DAVIS-MONTHAN  CLEAR     52  39  60 SE7       29.99R
RYAN FIELD       N/A     50  46  87 CALM      30.01R
NOGALES        CLEAR     46  31  55 S5        30.03R
SIERRA VISTA   CLEAR     45  36  70 S8        30.05R
DOUGLAS        CLEAR     44  36  73 SE10      30.07R
SAFFORD        PTCLDY    47  42  83 SE6       30.00R
$$

AZZ020-021-025-026-031-011500-
SOUTHWEST ARIZONA

CITY           SKY/WX    TMP DP  RH WIND       PRES   REMARKS
YUMA           CLOUDY    58  49  72 E8        29.91S
$$

CAZ031-033-041-043-047-048-061-011500-
SOUTHERN CALIFORNIA

CITY           SKY/WX    TMP DP  RH WIND       PRES   REMARKS
DOWNTOWN L.A.  PTCLDY    53  46  77 SE5       29.92R
L.A. AIRPORT   MOCLDY    52  47  83 NE5       29.92R
SAN DIEGO      RAIN      55  51  86 E7        29.93R
BURBANK        PTCLDY    48  43  82 CALM      29.91R
ONTARIO        PTCLDY    49  46  90 NE3       29.92R
RIVERSIDE      MOCLDY    50  47  89 NE3       29.93R
PALM SPRINGS   CLOUDY    55  42  61 S3        29.93R
EL CENTRO NAS  LGT RAIN  59  42  53 NW6       29.90R
IMPERIAL       CLOUDY    59  43  55 NW6       29.90R
BLYTHE         CLOUDY    57  42  57 S6        29.91R
NEEDLES        CLOUDY    59  36  42 SW8       29.92R
$$

NVZ020-UTZ003-011500-
SOUTHERN NEVADA-UTAH

CITY           SKY/WX    TMP DP  RH WIND       PRES   REMARKS
LAS VEGAS      MOCLDY    48  33  56 S6        29.91R
SALT LAKE CITY MOCLDY    33  30  88 CALM      30.04R
$$

NMZ009-TXZ055-011500-
NEW MEXICO-WEST TEXAS

CITY           SKY/WX    TMP DP  RH WIND       PRES   REMARKS
ALBUQUERQUE    MOCLDY    35  32  88 CALM      30.09R
EL PASO        PTCLDY    42  29  59 S6        30.09R
$$


........................KEY........................
SKY/WX - SKY CONDITION/WEATHER
TMP    - TEMPERATURE IN FAHRENHEIT
DP     - DEW POINT IN FAHRENHEIT
RH     - RELATIVE HUMIDITY IN PERCENT
WIND   - DIRECTION AND SPEED IN MILES PER HOUR (MPH)
VRB    - VARIABLE WIND DIRECTION
PRES   - MEAN SEA LEVEL PRESSURE IN INCHES OF MERCURY
         F - FALLING PRESSURE   R - RISING PRESSURE
         S - STEADY PRESSURE
VSB    - VISIBILITY IN MILES
HX     - HEAT INDEX IN FAHRENHEIT
WCI    - WIND CHILL INDEX IN FAHRENHEIT
TC     - TEMPERATURE IN CELSIUS WHICH IS ALSO KNOWN AS
         TEMPERATURE IN CENTIGRADE
AFB    - AIR FORCE BASE
         LUKE AFB IS LUKE AIR FORCE BASE
         DAVIS-MONTHAN IS DAVIS-MONTHAN AIR FORCE BASE
NAS    - NAVAL AIR STATION
         EL CENTRO NAS IS EL CENTRO NAVAL AIR STATION
N/A    - NOT AVAILABLE


USA.gov is the U.S. government's official web portal to all federal, state and local government web resources and services.